This demonstration page uses our WeatherBlox Daily Observations layout. Learn more.

Left ArrowRight Arrow

38.20091, -84.87328

Hourly Observations for April 12, 2022

Temp ( °F °C ) Dew Point ( °F °C ) Humidity (%) Winds ( mph kmh ) Pressure ( in mb ) Visibility ( mi km ) Precip ( " mm )
12:12 am 00:12 Cloudy with Light Rain 57 13.9 54 12.2 90 90 SSW 7 11 30.01 1016 9 14 0.01 0.25
12:53 am 00:53 Mostly Cloudy 57 13.9 53 11.7 87 87 VRB 3 6 29.94 1014 10 16 0.03 0.76
1:53 am 01:53 Clear 54 12.2 51 10.6 90 90 Calm 29.97 1015 10 16 0.00 0.00
2:27 am 02:27 Clear with Mist and Fog 52 11.1 49 9.4 89 89 Calm 30.00 1016 2 3 0.00 0.00
2:32 am 02:32 Clear with Mist and Fog 52 11.1 49 9.4 89 89 Calm 30.00 1016 1 1 0.00 0.00
2:38 am 02:38 Mostly Cloudy with Mist and Fog 52 11.1 50 10 93 93 Calm 30.00 1016 1 2 0.00 0.00
2:43 am 02:43 Mostly Clear with Mist and Fog 51 10.6 50 10 96 96 Calm 30.00 1016 3 4 0.00 0.00
2:50 am 02:50 Clear with Mist and Fog 52 11 48 9 88 88 Calm 30.00 1016 3 5 0.00 0.00
2:53 am 02:53 Clear with Mist and Fog 51 10.6 49 9.4 92 92 Calm 29.98 1015 3 5 0.00 0.00
3:00 am 03:00 Mostly Clear with Mist and Fog 50 10 48 8.9 93 93 Calm 29.99 1016 1 2 0.00 0.00
3:07 am 03:07 Mostly Cloudy with Fog 51 10.6 49 9.4 92 92 E 3 6 29.99 1016 1 1 0.00 0.00
3:21 am 03:21 Mostly Clear with Mist and Fog 49 9.4 48 8.9 97 97 Calm 30.00 1016 1 2 0.00 0.00
3:25 am 03:25 Mostly Cloudy with Mist and Fog 49 9.4 47 8.3 93 93 Calm 30.00 1016 1 1 0.00 0.00
3:34 am 03:34 Partly Cloudy with Fog 49 9.4 47 8.3 93 93 Calm 30.00 1016 1 1 0.00 0.00
3:51 am 03:51 Mostly Cloudy with Mist and Fog 50 10 48 9 94 94 Calm 30.00 1016 1 1 0.00 0.00
3:53 am 03:53 Cloudy with Mist and Fog 50 10 48 8.9 93 93 Calm 29.99 1016 1 2 0.00 0.00
3:58 am 03:58 Cloudy with Mist and Fog 50 10 48 8.9 93 93 Calm 30.00 1016 2 3 0.00 0.00
4:06 am 04:06 Cloudy 51 10.6 49 9.4 92 92 Calm 30.00 1016 8 13 0.00 0.00
4:53 am 04:53 Cloudy 53 11.7 51 10.6 93 93 Calm 29.99 1016 10 16 0.00 0.00
5:53 am 05:53 Cloudy 54 12.2 52 11.1 93 93 Calm 30.01 1016 7 11 0.00 0.00
6:53 am 06:53 Cloudy with Mist and Fog 55 12.8 52 11.1 90 90 ENE 3 6 30.02 1017 4 6 0.01 0.25
7:45 am 07:45 Cloudy with Light Rain 55 12.8 53 11.7 93 93 ESE 3 6 30.04 1017 3 4 0.00 0.00
7:53 am 07:53 Cloudy with Light Rain 55 12.8 53 11.7 93 93 ESE 3 6 30.04 1017 2 3 0.01 0.25
8:12 am 08:12 Cloudy with Light Rain 56 13.3 53 11.7 90 90 ESE 3 6 30.05 1018 2 3 0.01 0.25
8:19 am 08:19 Cloudy with Mist and Fog 56 13.3 53 11.7 90 90 ESE 5 7 30.05 1018 2 3 0.01 0.25
8:28 am 08:28 Cloudy with Light Rain 56 13.3 54 12.2 93 93 E 3 6 30.05 1018 2 3 0.01 0.25
8:36 am 08:36 Cloudy with Light Rain 56 13.3 54 12.2 93 93 E 3 6 30.05 1018 2 3 0.02 0.51
8:50 am 08:50 Cloudy with Mist and Fog 55 13 54 12 94 94 E 5 7 30.06 1018 4 6 0.02 0.51
8:53 am 08:53 Cloudy with Mist and Fog 56 13.3 54 12.2 93 93 E 5 7 30.05 1018 3 5 0.02 0.51
8:56 am 08:56 Cloudy with Mist and Fog 56 13.3 54 12.2 93 93 E 6 9 30.05 1018 3 4 0.00 0.00
9:09 am 09:09 Cloudy with Mist and Fog 56 13.3 54 12.2 93 93 E 7 11 30.05 1018 2 3 0.00 0.00
9:14 am 09:14 Cloudy with Mist and Fog 56 13.3 54 12.2 93 93 E 7 11 30.05 1018 2 3 0.00 0.00
9:30 am 09:30 Cloudy with Mist and Fog 56 13.3 54 12.2 93 93 E 6 9 30.05 1018 2 3 0.00 0.00
9:40 am 09:40 Cloudy with Light Rain 57 13.9 54 12.2 90 90 E 5 7 30.05 1018 2 2 0.01 0.25
9:53 am 09:53 Cloudy with Light Rain 57 13.9 55 12.8 93 93 E 6 9 30.05 1018 2 3 0.01 0.25
10:02 am 10:02 Cloudy with Light Rain 57 13.9 55 12.8 93 93 ESE 5 7 30.05 1018 2 3 0.01 0.25
10:27 am 10:27 Cloudy with Mist and Fog 57 13.9 55 12.8 93 93 ESE 6 9 30.06 1018 2 3 0.02 0.51
10:39 am 10:39 Cloudy with Mist and Fog 58 14.4 56 13.3 93 93 E 6 9 30.06 1018 2 3 0.02 0.51
10:53 am 10:53 Cloudy with Mist and Fog 58 14.4 56 13.3 93 93 E 6 9 30.06 1018 2 3 0.02 0.51
11:12 am 11:12 Cloudy with Mist and Fog 58 14.4 56 13.3 93 93 E 5 7 30.07 1018 4 6 0.00 0.00
11:42 am 11:42 Cloudy 60 15.6 57 13.9 90 90 ESE 6 9 30.05 1018 8 13 0.00 0.00
11:53 am 11:53 Cloudy 61 16.1 58 14.4 90 90 ESE 6 9 30.05 1018 10 16 0.00 0.00
12:25 pm 12:25 Cloudy 63 17.2 59 15 87 87 SE 5 7 30.05 1018 10 16 0.00 0.00
12:53 pm 12:53 Cloudy 65 18.3 60 15.6 84 84 SSE 6 9 30.04 1017 10 16 0.00 0.00
1:30 pm 13:30 Cloudy 67 19.4 61 16.1 81 81 SSE 6 9 30.03 1017 10 16 0.00 0.00
1:53 pm 13:53 Cloudy 67 19.4 61 16.1 81 81 S 6 9 30.03 1017 10 16 0.00 0.00
2:49 pm 14:49 Cloudy 70 21 59 15 69 69 SSW 14 22 30.00 1016 10 16 0.00 0.00
2:53 pm 14:53 Cloudy 69 20.6 59 15 70 70 S 12 19 30.01 1016 10 16 0.00 0.00
3:31 pm 15:31 Cloudy 70 21.1 59 15 68 68 SSW 15 24 29.99 1016 10 16 0.00 0.00
3:53 pm 15:53 Cloudy 69 20.6 59 15 70 70 S 9 15 29.99 1016 10 16 0.00 0.00
4:15 pm 16:15 Cloudy 71 21.7 60 15.6 68 68 SSE 12 19 29.97 1015 10 16 0.00 0.00
4:41 pm 16:41 Mostly Cloudy 70 21.1 60 15.6 71 71 S 10 17 29.97 1015 10 16 0.00 0.00
4:53 pm 16:53 Cloudy 71 21.7 60 15.6 68 68 SSW 12 19 29.97 1015 10 16 0.00 0.00
5:30 pm 17:30 Cloudy 69 20.6 60 15.6 73 73 SSE 9 15 29.96 1015 10 16 0.00 0.00
5:53 pm 17:53 Cloudy 69 20.6 60 15.6 73 73 SSE 9 15 29.96 1015 10 16 0.00 0.00
6:02 pm 18:02 Cloudy 69 20.6 60 15.6 73 73 SSE 10 17 29.95 1014 10 16 0.00 0.00
6:29 pm 18:29 Cloudy 68 20 60 15.6 76 76 SSE 8 13 29.96 1015 10 16 0.00 0.00
6:53 pm 18:53 Cloudy 67 19.4 60 15.6 79 79 SSE 8 13 29.97 1015 10 16 0.00 0.00
7:53 pm 19:53 Mostly Cloudy 67 19.4 60 15.6 79 79 SSE 6 9 29.96 1014 10 16 0.00 0.00
8:06 pm 20:06 Mostly Cloudy 67 19.4 60 15.6 79 79 SSE 6 9 29.94 1014 10 16 0.00 0.00
8:53 pm 20:53 Mostly Clear 65 18.3 60 15.6 84 84 SSE 6 9 29.94 1014 10 16 0.00 0.00
9:53 pm 21:53 Mostly Clear 65 18.3 59 15 81 81 SSE 8 13 29.94 1014 10 16 0.00 0.00
10:53 pm 22:53 Clear 65 18.3 59 15 81 81 SSE 8 13 29.92 1013 10 16 0.00 0.00
11:53 pm 23:53 Clear 65 18.3 59 15 81 81 SSE 9 15 29.91 1013 10 16 0.00 0.00

Powered by AerisWeather